This is the latest recevied weather packets stored in our database for station/object KB1JLI. If no packets are shown the sender has not sent any weather packets the latest 10 day(s).
| Time | Temp. | Humidity | Pressure | Rain* | Wind** | Luminosity | Snow |
|---|---|---|---|---|---|---|---|
| 1777407926 | 12.78° C | 29% | 1021.6 hPa | 0 mm | - | 51 W/m² | - |
| 1777407623 | 12.78° C | 29% | 1021.8 hPa | 0 mm | - | 59 W/m² | - |
| 1777407318 | 12.78° C | 30% | 1022 hPa | 0 mm | - | 229 W/m² | - |
| 1777407018 | 12.78° C | 28% | 1022 hPa | 0 mm | - | 314 W/m² | - |
| 1777406409 | 13.33° C | 27% | 1022 hPa | 0 mm | - | 376 W/m² | - |
| 1777406108 | 13.33° C | 25% | 1021.7 hPa | 0 mm | - | 439 W/m² | - |
| 1777405199 | 13.33° C | 33% | 1021.9 hPa | 0 mm | - | 474 W/m² | - |
| 1777404896 | 13.89° C | 33% | 1022.1 hPa | 0 mm | - | 499 W/m² | - |
| 1777404593 | 13.89° C | 36% | 1022.1 hPa | 0 mm | - | 507 W/m² | - |
| 1777404289 | 14.44° C | 34% | 1022.2 hPa | 0 mm | - | 519 W/m² | - |
| 1777403985 | 14.44° C | 33% | 1022.1 hPa | 0 mm | - | 523 W/m² | - |
| 1777403379 | 13.89° C | 35% | 1022 hPa | 0 mm | - | 547 W/m² | - |
| 1777403074 | 13.89° C | 34% | 1022.2 hPa | 0 mm | - | 554 W/m² | - |
| 1777402466 | 13.89° C | 35% | 1022.2 hPa | 0 mm | - | 573 W/m² | - |
| 1777399737 | 13.89° C | 42% | 1022.9 hPa | 0 mm | - | 646 W/m² | - |
| 1777399131 | 14.44° C | 47% | 1022.8 hPa | 0 mm | - | 657 W/m² | - |
| 1777397615 | 14.44° C | 53% | 1022.8 hPa | 0 mm | - | 675 W/m² | - |
| 1777397310 | 14.44° C | 53% | 1023 hPa | 0 mm | - | 681 W/m² | - |
| 1777396097 | 14.44° C | 56% | 1022.9 hPa | 0 mm | - | 695 W/m² | - |
| 1777393670 | 13.89° C | 57% | 1023 hPa | 0 mm | - | 701 W/m² | - |
| 1777393063 | 14.44° C | 58% | 1023.3 hPa | 0 mm | - | 701 W/m² | - |
| 1777392455 | 14.44° C | 56% | 1023.3 hPa | 0 mm | - | 696 W/m² | - |
| 1777391846 | 13.33° C | 57% | 1023.3 hPa | 0 mm | - | 690 W/m² | - |
| 1777391238 | 13.89° C | 55% | 1023.4 hPa | 0 mm | - | 684 W/m² | - |
| 1777390631 | 14.44° C | 54% | 1023.6 hPa | 0 mm | - | 676 W/m² | - |
* Rain latest hour (hover to see other rain measurements)
** Current wind speed in m/s (hover to see current wind gust speed)